Regional Weather Roundup
Issued by NWS

Home | Current Version | Previous Version | Text Only | Print | Product List | Glossary On
Versions: 1 2 3 4 5 6 7 8 9 10 11 12 13 14 15 16 17 18 19 20 21 22 23 24 25 26 27 28 29 30 31 32 33 34 35 36 37 38 39 40 41 42 43 44 45 46 47 48 49 50
000
ASUS43 KOAX 050602
RWRNE

WEATHER ROUNDUP FOR NEBRASKA
NATIONAL WEATHER SERVICE OMAHA NE
100 AM CDT TUE MAY 05 2015

NOTES: SATELLITE DATA IS BEING USED TO AUGMENT CLOUD COVER ABOVE
       12000 FEET.
       "FAIR" INDICATES FEW OR NO CLOUDS BELOW 12,000 FEET WITH NO
       SIGNIFICANT WEATHER AND/OR OBSTRUCTIONS TO VISIBILITY.

  * THESE STATIONS DO NOT REPORT WEATHER SUCH AS RAIN...SNOW OR FOG.

NEZ001>004-019>022-054>056-050700-
NEBRASKA PANHANDLE

CITY           SKY/WX    TMP DP  RH WIND       PRES   REMARKS
SCOTTSBLUFF    CLOUDY    50  41  71 SE8       30.10F
6HR MIN TEMP:  49; 6HR MAX TEMP:  61;

ALLIANCE       CLOUDY    49  39  68 SE8       30.10F
6HR MIN TEMP:  44; 6HR MAX TEMP:  58;

CHADRON        MOCLDY    42  39  89 W3        30.09F
6HR MIN TEMP:  40; 6HR MAX TEMP:  54;

KIMBALL        CLOUDY    44  43  97 SE9       30.09S FOG
SIDNEY         CLOUDY    46  42  86 SE9       30.11F
6HR MIN TEMP:  46; 6HR MAX TEMP:  52;

$$

NEZ057>060-069>072-079>082-050700-
SOUTHWEST NEBRASKA

CITY           SKY/WX    TMP DP  RH WIND       PRES   REMARKS
NORTH PLATTE   CLOUDY    51  50  96 E5        30.09F FOG
6HR MIN TEMP:  50; 6HR MAX TEMP:  51; 6HR PCP:  0.01;

IMPERIAL       CLOUDY    49  47  93 CALM      30.10F FOG
6HR MIN TEMP:  48; 6HR MAX TEMP:  50;

MCCOOK         CLOUDY    53  51  93 NE7       30.07F FOG
6HR MIN TEMP:  51; 6HR MAX TEMP:  54; 6HR PCP:  0.06;

$$

NEZ005>010-023>029-035>040-094-050700-
NORTH CENTRAL NEBRASKA

CITY           SKY/WX    TMP DP  RH WIND       PRES   REMARKS
VALENTINE      CLEAR     49  36  61 NE5       30.09F
6HR MIN TEMP:  49; 6HR MAX TEMP:  65;

AINSWORTH      PTCLDY    47  39  74 E5        30.09F
BROKEN BOW     CLOUDY    54  51  90 SE6       30.09S FOG
6HR MIN TEMP:  54; 6HR MAX TEMP:  54;

ORD            CLOUDY    54  51  90 E7        30.08S
6HR MIN TEMP:  54; 6HR MAX TEMP:  57;

$$

NEZ041-046>049-061>064-073>077-083>087-050700-
SOUTH CENTRAL NEBRASKA

CITY           SKY/WX    TMP DP  RH WIND       PRES   REMARKS
GRAND ISLAND   FOG       54  54 100 E6        30.10R VSB 1/2
6HR MIN TEMP:  54; 6HR MAX TEMP:  55; 6HR PCP:  0.01;

AURORA         FOG       56  56 100 E5        30.09R VSB 1/4
HASTINGS       FOG       55  55 100 E6        30.08F VSB 1/4
6HR MIN TEMP:  55; 6HR MAX TEMP:  56;

KEARNEY *      CLOUDY    54  52  94 E7        30.09F VSB 3/4
$$

NEZ011>018-030>034-042>045-050700-
NORTHEAST NEBRASKA

CITY           SKY/WX    TMP DP  RH WIND       PRES   REMARKS
NORFOLK        CLOUDY    56  52  86 E8        30.09F
6HR MIN TEMP:  56; 6HR MAX TEMP:  58;

COLUMBUS *     CLOUDY    55  50  82 NE7       30.10F
TEKAMAH        CLOUDY    57  55  93 N9        30.09F
6HR MIN TEMP:  57; 6HR MAX TEMP:  59; 6HR PCP:  0.03;

$$

NEZ050>053-065>068-078-088>093-050700-
SOUTHEAST NEBRASKA

CITY           SKY/WX    TMP DP  RH WIND       PRES   REMARKS
LINCOLN        CLOUDY    61  59  93 MISG      30.08S FOG
6HR MIN TEMP:  59; 6HR MAX TEMP:  61; 6HR PCP:  0.01;

OMAHA EPPLEY   CLOUDY    60  57  89 SE3       30.07F
6HR MIN TEMP:  59; 6HR MAX TEMP:  61; 6HR PCP:  0.01;

FALLS CITY     LGT RAIN  62  62 100 W6        30.09F
6HR MIN TEMP:  61; 6HR MAX TEMP:  65; 6HR PCP:  0.57;

PLATTSMOUTH    DRIZZLE   62  59  90 S15       30.08F
$$

NEZ044-045-051>053-067-050700-
OMAHA AREA

CITY           SKY/WX    TMP DP  RH WIND       PRES   REMARKS
OMAHA EPPLEY   CLOUDY    60  57  89 SE3       30.07F
6HR MIN TEMP:  59; 6HR MAX TEMP:  61; 6HR PCP:  0.01;

OFFUTT AFB     CLOUDY    60  59  95 E2        30.07F
PLATTSMOUTH    DRIZZLE   62  59  90 S15       30.08F
$$


USA.gov is the U.S. government's official web portal to all federal, state and local government web resources and services.